Back to catalog

STARLINK-32392

AliveCommunicationsVLEO
NORAD 61214·PAYLOAD·🇺🇸 United States

Launched Sep 20, 2024 from Vandenberg Space Force Base

Loading…

Next Passes (next 24 hours)

TLE

FreshSource: CelesTrak SupGP

Epoch: Sep 14, 2026, 20:58 UTC

1 61214C 24171Q   26257.87409722 -.00027450  00000+0 -81070-3 0  2575
2 61214  53.1579 159.8361 0001304 101.0172  56.9484 15.34416510    16

Track STARLINK-32392 in real time with AllMySat

Download on the App Store